Time,TemperatureF,DewpointF,PressureIn,WindDirection,WindDirectionDegrees,WindSpeedMPH,WindSpeedGustMPH,Humidity,HourlyPrecipIn,Conditions,Clouds,dailyrainin,SoftwareType,DateUTC
2013-10-14 00:21:00,41.0,28.0,-100.00,SSW,208,0.0,1.0,60,0.00,,,-99.99,,2013-10-14 07:21:00,
2013-10-14 00:52:00,41.0,28.0,-100.00,SSW,208,0.0,1.0,60,0.00,,,-99.99,,2013-10-14 07:52:00,
2013-10-14 01:02:00,41.0,28.0,-100.00,SSW,208,0.0,1.0,60,0.00,,,-99.99,,2013-10-14 08:02:00,
2013-10-14 01:12:00,41.0,28.0,-100.00,SSW,208,0.0,1.0,60,0.00,,,-99.99,,2013-10-14 08:12:00,
2013-10-14 03:12:00,40.0,29.0,-100.00,West,267,0.0,8.0,64,0.00,,,-99.99,,2013-10-14 10:12:00,
2013-10-14 04:11:00,36.0,29.0,-100.00,WNW,295,0.0,6.0,74,0.00,,,-99.99,,2013-10-14 11:11:00,
2013-10-14 04:52:00,37.0,29.0,-100.00,WSW,254,0.0,1.0,72,0.00,,,-99.99,,2013-10-14 11:52:00,
2013-10-14 05:12:00,36.0,28.0,-100.00,SSW,212,0.0,6.0,73,0.00,,,-99.99,,2013-10-14 12:12:00,
2013-10-14 05:22:00,36.0,28.0,-100.00,SSW,212,0.0,6.0,73,0.00,,,-99.99,,2013-10-14 12:22:00,
2013-10-14 05:42:00,34.0,28.0,-100.00,SSW,212,0.0,8.0,77,0.00,,,-99.99,,2013-10-14 12:42:00,
2013-10-14 05:52:00,35.0,29.0,-100.00,WNW,289,0.0,8.0,78,0.00,,,-99.99,,2013-10-14 12:52:00,
2013-10-14 06:11:00,35.0,29.0,-100.00,ESE,121,0.0,5.0,78,0.00,,,-99.99,,2013-10-14 13:11:00,
2013-10-14 06:21:00,35.0,29.0,-100.00,ESE,121,0.0,5.0,78,0.00,,,-99.99,,2013-10-14 13:21:00,
2013-10-14 09:42:00,40.0,30.0,-100.00,ESE,113,1.0,7.0,68,0.00,,,-99.99,,2013-10-14 16:42:00,
2013-10-14 09:53:00,40.0,30.0,-100.00,ESE,113,1.0,7.0,68,0.00,,,-99.99,,2013-10-14 16:53:00,
2013-10-14 10:01:00,42.0,31.0,-100.00,ESE,112,2.0,9.0,66,0.00,,,-99.99,,2013-10-14 17:01:00,
2013-10-14 10:11:00,41.0,31.0,-100.00,ESE,117,2.0,11.0,66,0.00,,,-99.99,,2013-10-14 17:11:00,
2013-10-14 10:22:00,41.0,31.0,-100.00,ESE,117,2.0,11.0,66,0.00,,,-99.99,,2013-10-14 17:22:00,
2013-10-14 10:42:00,42.0,31.0,-100.00,ESE,112,2.0,9.0,66,0.00,,,-99.99,,2013-10-14 17:42:00,
2013-10-14 10:52:00,42.0,31.0,-100.00,ESE,112,2.0,9.0,66,0.00,,,-99.99,,2013-10-14 17:52:00,
2013-10-14 11:22:00,45.0,31.0,-100.00,ESE,110,3.0,10.0,58,0.00,,,-99.99,,2013-10-14 18:22:00,
2013-10-14 11:42:00,46.0,30.0,-100.00,ESE,112,3.0,13.0,54,0.00,,,-99.99,,2013-10-14 18:42:00,
2013-10-14 11:52:00,48.0,31.0,-100.00,ESE,116,3.0,9.0,52,0.00,,,-99.99,,2013-10-14 18:52:00,
2013-10-14 12:11:00,50.0,33.0,-100.00,ESE,110,4.0,9.0,51,0.00,,,-99.99,,2013-10-14 19:11:00,
2013-10-14 12:21:00,50.0,33.0,-100.00,ESE,110,4.0,9.0,51,0.00,,,-99.99,,2013-10-14 19:21:00,
2013-10-14 12:42:00,51.0,31.0,-100.00,ENE,58,3.0,8.0,46,0.00,,,-99.99,,2013-10-14 19:42:00,
2013-10-14 13:11:00,51.0,30.0,-100.00,ESE,102,2.0,7.0,44,0.00,,,-99.99,,2013-10-14 20:11:00,
2013-10-14 13:22:00,50.0,29.0,-100.00,SE,140,3.0,11.0,45,0.00,,,-99.99,,2013-10-14 20:22:00,
2013-10-14 13:32:00,50.0,29.0,-100.00,SE,140,3.0,11.0,45,0.00,,,-99.99,,2013-10-14 20:32:00,
2013-10-14 14:12:00,53.0,27.0,-100.00,ESE,119,3.0,11.0,37,0.00,,,-99.99,,2013-10-14 21:12:00,
2013-10-14 14:21:00,52.0,25.0,-100.00,SE,144,3.0,8.0,35,0.00,,,-99.99,,2013-10-14 21:21:00,
2013-10-14 14:44:00,54.0,28.0,-100.00,ESE,104,3.0,10.0,36,0.00,,,-99.99,,2013-10-14 21:44:00,
2013-10-14 15:13:00,55.0,26.0,-100.00,East,93,2.0,9.0,32,0.00,,,-99.99,,2013-10-14 22:13:00,
2013-10-14 15:24:00,55.0,24.0,-100.00,East,80,3.0,13.0,30,0.00,,,-99.99,,2013-10-14 22:24:00,
2013-10-14 15:43:00,55.0,25.0,-100.00,NNE,30,3.0,10.0,31,0.00,,,-99.99,,2013-10-14 22:43:00,
2013-10-14 15:54:00,55.0,25.0,-100.00,NNE,30,3.0,10.0,31,0.00,,,-99.99,,2013-10-14 22:54:00,
2013-10-14 16:03:00,55.0,25.0,-100.00,NNE,30,3.0,10.0,31,0.00,,,-99.99,,2013-10-14 23:03:00,
2013-10-14 16:22:00,55.0,25.0,-100.00,NE,56,2.0,10.0,31,0.00,,,-99.99,,2013-10-14 23:22:00,
2013-10-14 16:42:00,54.0,24.0,-100.00,NE,49,2.0,7.0,31,0.00,,,-99.99,,2013-10-14 23:42:00,
2013-10-14 16:52:00,53.0,25.0,-100.00,NE,37,2.0,6.0,34,0.00,,,-99.99,,2013-10-14 23:52:00,
2013-10-14 17:02:00,53.0,25.0,-100.00,NE,37,2.0,6.0,34,0.00,,,-99.99,,2013-10-15 00:02:00,
2013-10-14 17:21:00,53.0,24.0,-100.00,North,350,4.0,11.0,32,0.00,,,-99.99,,2013-10-15 00:21:00,
2013-10-14 17:52:00,52.0,27.0,-100.00,NNW,346,3.0,7.0,37,0.00,,,-99.99,,2013-10-15 00:52:00,
2013-10-14 18:01:00,52.0,27.0,-100.00,NNW,346,3.0,7.0,37,0.00,,,-99.99,,2013-10-15 01:01:00,
2013-10-14 18:21:00,51.0,27.0,-100.00,NW,316,5.0,11.0,39,0.00,,,-99.99,,2013-10-15 01:21:00,
2013-10-14 18:42:00,51.0,26.0,-100.00,NNW,339,3.0,12.0,38,0.00,,,-99.99,,2013-10-15 01:42:00,
2013-10-14 19:12:00,51.0,26.0,-100.00,North,354,5.0,14.0,37,0.00,,,-99.99,,2013-10-15 02:12:00,
2013-10-14 19:22:00,50.0,25.0,-100.00,NNW,335,4.0,13.0,37,0.00,,,-99.99,,2013-10-15 02:22:00,
2013-10-14 19:42:00,50.0,24.0,-100.00,NNW,332,3.0,11.0,36,0.00,,,-99.99,,2013-10-15 02:42:00,
2013-10-14 19:52:00,50.0,24.0,-100.00,NNW,332,3.0,11.0,36,0.00,,,-99.99,,2013-10-15 02:52:00,
2013-10-14 20:02:00,50.0,24.0,-100.00,NNW,332,3.0,11.0,36,0.00,,,-99.99,,2013-10-15 03:02:00,
2013-10-14 20:11:00,50.0,24.0,-100.00,NNW,332,3.0,11.0,36,0.00,,,-99.99,,2013-10-15 03:11:00,
2013-10-14 20:23:00,49.0,24.0,-100.00,NW,325,6.0,13.0,37,0.00,,,-99.99,,2013-10-15 03:23:00,
2013-10-14 20:44:00,49.0,24.0,-100.00,NW,322,5.0,10.0,37,0.00,,,-99.99,,2013-10-15 03:44:00,
2013-10-14 21:14:00,48.0,24.0,-100.00,NW,315,6.0,16.0,38,0.00,,,-99.99,,2013-10-15 04:14:00,
2013-10-14 21:43:00,48.0,24.0,-100.00,NW,315,6.0,14.0,38,0.00,,,-99.99,,2013-10-15 04:43:00,
2013-10-14 21:54:00,48.0,24.0,-100.00,NW,316,5.0,12.0,39,0.00,,,-99.99,,2013-10-15 04:54:00,
2013-10-14 22:03:00,48.0,24.0,-100.00,NW,316,5.0,12.0,39,0.00,,,-99.99,,2013-10-15 05:03:00,
2013-10-14 22:12:00,48.0,24.0,-100.00,NW,316,5.0,12.0,39,0.00,,,-99.99,,2013-10-15 05:12:00,
2013-10-14 22:42:00,47.0,25.0,-100.00,NW,312,4.0,9.0,41,0.00,,,-99.99,,2013-10-15 05:42:00,
2013-10-14 22:53:00,47.0,25.0,-100.00,NW,322,4.0,10.0,41,0.00,,,-99.99,,2013-10-15 05:53:00,
2013-10-14 23:12:00,46.0,24.0,-100.00,NW,306,2.0,6.0,42,0.00,,,-99.99,,2013-10-15 06:12:00,
2013-10-14 23:42:00,45.0,24.0,-100.00,NW,308,0.0,2.0,44,0.00,,,-99.99,,2013-10-15 06:42:00,